Volver al catálogo

DELTA 1 DEB

ActivoLEO
NORAD 10757·DEBRIS·🇺🇸 United States

Lanzado Jul 29, 1976 desde Vandenberg Space Force Base

Loading…

Próximos Pases (próximas 24 horas)

TLE

ActualizadoSource: Space-Track

Época: Sep 14, 2026, 01:00 UTC

1 10757U 76077BE  26257.04180471  .00000432  00000-0  53658-2 0  9992
2 10757 101.9128 295.2589 0232033 252.0409 134.8351 12.00609929194354

Sigue DELTA 1 DEB en tiempo real con AllMySat

Download on the App Store